DMSP 5D-2 F13 DEB

Satellite information

Favourite Embed

Satellite Type and Status

DEBRISIN ORBIT

Key statistics

Satellite DMSP 5D-2 F13 DEB at a glance.

Uptime

11222

Days in orbit

Revolutions

≈ 14.4

Per day

Orbit

SSO

Sun Synchronous Orbit

Inclination

98.7

Latest

Satellite identification and parameters

Extended collection of information and parameters for DMSP 5D-2 F13 DEB.

Object identification

Identified? True

Debris? True

Object name: DMSP 5D-2 F13 DEB

International designator: 1995-015GF

Object number (NORAD): 42265

Object ID (CCSDS): 42265

Country: UNITED STATES OF AMERICA (US)

Current information (Y/N): Y

RCS size: SMALL

Orbital parameters

Period: 100.203 minutes

Inclination: 98.6933 deg

SMA: 7146.269 km

Apoapsis: 771.682 km

Periapsis: 764.586 km

RAAN: 16.5239 deg

Eccentricy: 0.0004965

Argument of periapsis: 207.2876 deg

Mean anomaly: 152.805 deg

Mean motion: 14.37089082 rev/day

Mean motion (dot): 0.00007964 rev/day2

B* drag term: 0.002694 1/REarth

Two-line elements (TLE)

Creation date: Dec. 10, 2025, 10:36 p.m.

Reference frame: TEME

Reference center: EARTH

Epoch: Dec. 10, 2025, 12:51 p.m. UTC

TLE line 0: 0 DMSP 5D-2 F13 DEB

TLE line 1: 1 42265U 95015GF 25344.53547742 .00007964 00000-0 26940-2 0 9993

TLE line 2: 2 42265 98.6933 16.5239 0004965 207.2876 152.8050 14.37089082521495

Live tracking on map

Real-time ground track for satellite DMSP 5D-2 F13 DEB.

In-orbit conjunctions

A list of the most updated potential collisions computed for object DMSP 5D-2 F13 DEB.

Target Orbit TCA Probability of collision Miss distance Type
COSMOS 1898 LEO 2025-11-12 12:42:18 0.00016971 200.0 (m) PAYLOAD
COSMOS 2251 DEB LEO 2025-04-18 19:18:23 0.0001814334 137.0 (m) DEBRIS
NOAA 16 DEB SSO 2024-06-24 22:47:18 0.0001283177 118.0 (m) DEBRIS

Associated space launch

Military meteorological satellite

DMSP 5D-2 F13 DEB was lifted into orbit during the mission ‘Atlas E | DMSP-5D2 F13’, on board a Atlas E space rocket.

The launch took place on March 24, 1995, 2:05 p.m. from Space Launch Complex 3W.

For more information about the launch, click the button.

Launch to space Atlas E | DMSP-5D2 F13
Atlas E | DMSP-5D2 F13

Agency: N/A

Status: Launch Successful

Launch date: March 24, 1995, 2:05 p.m. UTC

Rocket: Atlas E

Launch pad: Space Launch Complex 3W

Location: Vandenberg SFB, CA, USA

...

Latest news about this satellite

There are no fresh news available about this satellite. Check back as we update our databases every day.


Newsletter sign-up

Weekly statistics, charts and insights to help you stay on top of the space industry.